GW5295 Weather Reports


Display with metric or nautical units.
time (UTC)temp
F
wind
direction
speed
MPH
gust
MPH
rain 1hr
in
rain 24hr
in
rain mn
in
humidity
%
barometer
mb
20260506230100 48 265 12.0 17.0 0.00 0.00 0.00 69 1023.2
20260506225522 48 265 13.0 18.0 0.00 0.00 0.00 68 1022.9
20260506225020 48 269 13.0 18.0 0.00 0.00 0.00 68 1022.8
20260506224558 49 255 14.0 18.0 0.00 0.00 0.00 66 1022.8
20260506224019 49 257 9.0 16.0 0.00 0.00 0.00 67 1022.9
20260506223520 49 266 12.0 16.0 0.00 0.00 0.00 66 1022.9
20260506223059 50 261 9.0 14.0 0.00 0.00 0.00 65 1022.9
20260506222520 50 264 8.0 14.0 0.00 0.00 0.00 65 1023.0
20260506222020 50 321 7.0 11.0 0.00 0.00 0.00 64 1022.9
20260506221607 50 253 9.0 11.0 0.00 0.00 0.00 63 1022.8
20260506221022 50 283 6.0 11.0 0.00 0.00 0.00 64 1022.9
20260506220525 49 279 8.0 12.0 0.00 0.00 0.00 63 1022.9
20260506220109 49 255 4.0 12.0 0.00 0.00 0.00 62 1023.0
20260506215523 49 247 8.0 13.0 0.00 0.00 0.00 63 1022.8
20260506215019 49 241 8.0 15.0 0.00 0.00 0.00 65 1022.9
20260506214558 49 259 12.0 15.0 0.00 0.00 0.00 64 1022.8
20260506214019 49 261 10.0 15.0 0.00 0.00 0.00 63 1022.7
20260506213525 49 260 8.0 12.0 0.00 0.00 0.00 64 1022.8
20260506213127 49 279 8.0 12.0 0.00 0.00 0.00 64 1022.9
20260506212523 50 306 7.0 11.0 0.00 0.00 0.00 63 1022.9
20260506212020 50 310 4.0 11.0 0.00 0.00 0.00 63 1022.9
20260506211611 50 297 7.0 11.0 0.00 0.00 0.00 63 1022.8
20260506211022 49 260 8.0 11.0 0.00 0.00 0.00 62 1022.8
20260506210522 49 277 7.0 12.0 0.00 0.00 0.00 63 1022.8
20260506210104 49 281 7.0 13.0 0.00 0.00 0.00 63 1022.7
20260506205518 49 283 9.0 13.0 0.00 0.00 0.00 62 1022.6
20260506205022 49 288 10.0 13.0 0.00 0.00 0.00 62 1022.6
20260506204606 49 279 9.0 13.0 0.00 0.00 0.00 61 1022.5
20260506204021 50 280 8.0 11.0 0.00 0.00 0.00 60 1022.5
20260506203521 50 298 7.0 12.0 0.00 0.00 0.00 62 1022.3
20260506203049 49 252 7.0 12.0 0.00 0.00 0.00 63 1022.4
20260506202520 49 255 7.0 11.0 0.00 0.00 0.00 63 1022.4
20260506202224 49 269 2.0 10.0 0.00 0.00 0.00 63 1022.5
20260506201551 49 270 7.0 12.0 0.00 0.00 0.00 63 1022.4
20260506201012 49 285 7.0 12.0 0.00 0.00 0.00 63 1022.3
20260506200513 49 245 8.0 12.0 0.00 0.00 0.00 63 1022.4
20260506200040 49 288 7.0 13.0 0.00 0.00 0.00 64 1022.3
20260506195509 48 284 10.0 13.0 0.00 0.00 0.00 64 1022.3
20260506195011 49 271 10.0 13.0 0.00 0.00 0.00 63 1022.2
20260506194552 49 293 9.0 14.0 0.00 0.00 0.00 66 1022.2
20260506194013 48 239 11.0 12.0 0.00 0.00 0.00 66 1021.9
20260506193509 48 268 7.0 14.0 0.00 0.00 0.00 67 1022.0
20260506193040 47 283 10.0 14.0 0.00 0.00 0.00 66 1022.0
20260506192510 48 271 10.0 13.0 0.00 0.00 0.00 66 1021.9
20260506192011 48 286 9.0 13.0 0.00 0.00 0.00 66 1021.9
20260506191545 48 275 9.0 13.0 0.00 0.00 0.00 67 1021.9
20260506191012 48 254 8.0 13.0 0.00 0.00 0.00 68 1022.1
20260506190516 47 278 9.0 14.0 0.00 0.00 0.00 69 1022.1
20260506190044 47 215 9.0 14.0 0.00 0.00 0.00 69 1022.0
20260506185511 47 257 9.0 14.0 0.00 0.00 0.00 69 1022.0
20260506185014 47 263 10.0 14.0 0.00 0.00 0.00 69 1021.8
20260506184540 47 249 9.0 14.0 0.00 0.00 0.00 69 1021.7
20260506184016 47 254 11.0 14.0 0.00 0.00 0.00 68 1021.7
20260506183510 47 260 8.0 13.0 0.00 0.00 0.00 68 1021.7
20260506183052 47 213 7.0 13.0 0.00 0.00 0.00 70 1021.8
20260506182511 47 251 9.0 12.0 0.00 0.00 0.00 69 1021.9
20260506182012 47 247 8.0 12.0 0.00 0.00 0.00 69 1021.9
20260506181538 47 284 7.0 12.0 0.00 0.00 0.00 69 1021.9
20260506181013 47 277 7.0 12.0 0.00 0.00 0.00 70 1021.9
20260506180513 46 255 9.0 11.0 0.00 0.00 0.00 70 1021.8
20260506180040 46 260 7.0 13.0 0.00 0.00 0.00 70 1021.9
20260506175512 47 290 8.0 13.0 0.00 0.00 0.00 70 1021.9
20260506175010 46 298 6.0 12.0 0.00 0.00 0.00 70 1021.8
20260506174539 46 281 7.0 11.0 0.00 0.00 0.00 71 1021.8
20260506174011 46 253 7.0 13.0 0.00 0.00 0.00 71 1021.8
20260506173511 46 282 8.0 13.0 0.00 0.00 0.00 70 1021.8
20260506173038 46 271 8.0 12.0 0.00 0.00 0.00 71 1021.7
20260506172513 46 247 7.0 12.0 0.00 0.00 0.00 70 1021.8
20260506172011 46 273 7.0 13.0 0.00 0.00 0.00 71 1021.8
20260506171539 46 277 9.0 13.0 0.00 0.00 0.00 71 1021.9
20260506171017 46 263 10.0 14.0 0.00 0.00 0.00 71 1021.8
20260506170515 46 281 10.0 14.0 0.00 0.00 0.00 72 1021.8
20260506170100 46 273 11.0 15.0 0.00 0.00 0.00 71 1021.8
20260506165513 46 269 12.0 15.0 0.00 0.00 0.00 71 1021.7
20260506165011 46 271 10.0 15.0 0.00 0.00 0.00 71 1021.7
20260506164538 46 264 9.0 14.0 0.00 0.00 0.00 72 1021.6
20260506164016 46 261 9.0 12.0 0.00 0.00 0.00 72 1021.6
20260506163511 45 296 7.0 12.0 0.00 0.00 0.00 72 1021.7
20260506163041 45 260 9.0 12.0 0.00 0.00 0.00 73 1021.6
20260506162511 45 265 6.0 12.0 0.00 0.00 0.00 73 1021.7
20260506162016 45 263 6.0 15.0 0.00 0.00 0.00 72 1021.7
20260506161540 45 288 9.0 15.0 0.00 0.00 0.00 73 1021.6
20260506161013 45 313 5.0 11.0 0.00 0.00 0.00 72 1021.7
20260506160510 45 301 5.0 12.0 0.00 0.00 0.00 73 1021.6
20260506160046 45 315 9.0 14.0 0.00 0.00 0.00 73 1021.5
20260506155510 45 360 10.0 14.0 0.00 0.00 0.00 73 1021.5
20260506155013 45 313 8.0 13.0 0.00 0.00 0.00 74 1021.4
20260506154541 45 308 9.0 13.0 0.00 0.00 0.00 74 1021.4
20260506154013 45 327 10.0 13.0 0.00 0.00 0.00 75 1021.4
20260506153511 45 360 9.0 15.0 0.00 0.00 0.00 75 1021.4
20260506153038 45 360 9.0 15.0 0.00 0.00 0.00 75 1021.3
20260506152511 45 309 8.0 16.0 0.00 0.00 0.00 75 1021.3
20260506152015 45 298 10.0 16.0 0.00 0.00 0.00 75 1021.2
20260506151543 45 307 7.0 16.0 0.00 0.00 0.00 75 1021.2
20260506151014 45 305 12.0 16.0 0.00 0.00 0.00 75 1021.2
20260506150513 45 297 8.0 13.0 0.00 0.00 0.00 75 1021.2
20260506150046 45 294 9.0 12.0 0.00 0.00 0.00 76 1021.1
20260506145514 45 310 9.0 12.0 0.00 0.00 0.00 76 1021.1
20260506145013 45 296 5.0 11.0 0.00 0.00 0.00 76 1021.1
20260506144545 45 290 5.0 10.0 0.00 0.00 0.00 77 1021.0
20260506144011 45 285 6.0 15.0 0.00 0.00 0.00 76 1021.0
20260506143511 44 280 9.0 15.0 0.00 0.00 0.00 77 1020.9
20260506143035 44 270 7.0 10.0 0.00 0.00 0.00 77 1020.9
20260506142516 44 304 3.0 9.0 0.00 0.00 0.00 77 1020.8
20260506142013 44 305 6.0 10.0 0.00 0.00 0.00 77 1020.8
20260506141539 44 360 5.0 12.0 0.00 0.00 0.00 78 1020.8
20260506141011 44 300 8.0 15.0 0.00 0.00 0.00 77 1020.8
20260506140514 44 313 9.0 16.0 0.00 0.00 0.00 78 1020.7
20260506140048 44 360 12.0 17.0 0.00 0.00 0.00 78 1020.8
20260506135515 44 315 10.0 17.0 0.00 0.00 0.00 78 1020.7
20260506135010 44 309 11.0 16.0 0.00 0.00 0.00 78 1020.6
20260506134545 44 299 11.0 16.0 0.00 0.00 0.00 77 1020.5
20260506134017 44 292 11.0 15.0 0.00 0.00 0.00 77 1020.5
20260506133514 44 288 9.0 16.0 0.00 0.00 0.00 77 1020.5
20260506133037 45 290 9.0 16.0 0.00 0.00 0.00 77 1020.4
20260506132511 45 296 7.0 16.0 0.00 0.00 0.00 76 1020.4
20260506132012 45 298 7.0 15.0 0.00 0.00 0.00 77 1020.2
20260506131537 45 42 7.0 15.0 0.00 0.00 0.00 77 1020.3
20260506131011 45 311 8.0 15.0 0.00 0.00 0.00 77 1020.2
20260506130515 45 313 7.0 14.0 0.00 0.00 0.00 76 1020.3
20260506130046 45 283 11.0 16.0 0.00 0.00 0.00 76 1020.2
20260506125511 45 360 9.0 16.0 0.00 0.00 0.00 76 1020.2
20260506125013 45 283 8.0 15.0 0.00 0.00 0.00 77 1020.2
20260506124540 45 360 7.0 15.0 0.00 0.00 0.00 78 1020.2
20260506124014 45 303 10.0 17.0 0.00 0.00 0.00 78 1020.1
20260506123514 45 243 7.0 12.0 0.00 0.00 0.00 79 1020.1
20260506123039 45 291 8.0 12.0 0.00 0.00 0.00 79 1020.1
20260506122513 45 281 7.0 13.0 0.00 0.00 0.00 79 1020.2
20260506122014 45 304 8.0 14.0 0.00 0.00 0.00 79 1020.1
20260506121538 45 292 9.0 14.0 0.00 0.00 0.00 79 1019.9
20260506121011 45 308 6.0 14.0 0.00 0.00 0.00 79 1020.0
20260506120511 45 281 8.0 14.0 0.00 0.00 0.00 78 1019.9
20260506120046 45 285 7.0 13.0 0.00 0.00 0.00 79 1019.8
20260506115512 45 267 8.0 15.0 0.00 0.00 0.00 78 1019.7
20260506115011 45 265 10.0 15.0 0.00 0.00 0.00 78 1019.6
20260506114539 45 278 9.0 15.0 0.00 0.00 0.00 79 1019.7
20260506114012 45 266 10.0 15.0 0.00 0.00 0.00 78 1019.6
20260506113513 45 292 9.0 14.0 0.00 0.00 0.00 79 1019.5
20260506113038 45 276 9.0 13.0 0.00 0.00 0.00 80 1019.5
20260506112512 45 289 8.0 13.0 0.00 0.00 0.00 80 1019.5
20260506112016 45 279 8.0 13.0 0.00 0.00 0.00 80 1019.5
20260506111546 45 249 9.0 11.0 0.00 0.00 0.00 80 1019.4
20260506111017 45 269 6.0 11.0 0.00 0.00 0.00 81 1019.4
20260506110513 45 270 6.0 11.0 0.00 0.00 0.00 81 1019.4
20260506110037 45 276 9.0 11.0 0.00 0.00 0.00 80 1019.3
20260506105514 45 285 8.0 11.0 0.00 0.00 0.00 81 1019.3
20260506105013 45 273 5.0 9.0 0.00 0.00 0.00 81 1019.4
20260506104545 45 290 6.0 11.0 0.00 0.00 0.00 82 1019.4
20260506104014 45 275 7.0 11.0 0.00 0.00 0.00 82 1019.4
20260506103513 45 288 5.0 10.0 0.00 0.00 0.00 82 1019.4
20260506103049 45 261 7.0 10.0 0.00 0.00 0.00 82 1019.4
20260506102515 45 277 6.0 10.0 0.00 0.00 0.00 82 1019.4
20260506102014 45 263 7.0 10.0 0.00 0.00 0.00 82 1019.5
20260506101549 45 264 6.0 10.0 0.00 0.00 0.00 82 1019.5
20260506101013 45 259 7.0 10.0 0.00 0.00 0.00 81 1019.5
20260506100512 45 256 6.0 11.0 0.00 0.00 0.00 81 1019.4
20260506100047 45 254 8.0 11.0 0.00 0.00 0.00 81 1019.4
20260506095513 45 262 8.0 12.0 0.00 0.00 0.00 81 1019.3
20260506095011 45 262 9.0 12.0 0.00 0.00 0.00 81 1019.4
20260506094535 45 262 8.0 11.0 0.00 0.00 0.00 82 1019.2
20260506094012 45 255 8.0 11.0 0.00 0.00 0.00 82 1019.2
20260506093513 45 261 7.0 11.0 0.00 0.00 0.00 82 1019.2
20260506093037 45 259 8.0 11.0 0.00 0.00 0.00 82 1019.1
20260506092513 45 248 8.0 12.0 0.00 0.00 0.00 82 1019.1
20260506092014 45 254 8.0 13.0 0.00 0.00 0.00 81 1019.1
20260506091545 45 260 10.0 13.0 0.00 0.00 0.00 81 1019.1
20260506091011 45 257 10.0 13.0 0.00 0.00 0.00 81 1019.0
20260506090513 45 260 10.0 13.0 0.00 0.00 0.00 80 1019.0
20260506090059 45 264 10.0 13.0 0.00 0.00 0.00 79 1019.0
20260506085515 45 250 9.0 13.0 0.00 0.00 0.00 80 1018.8
20260506085013 45 254 10.0 13.0 0.00 0.00 0.00 79 1019.0
20260506084600 45 248 10.0 13.0 0.00 0.00 0.00 79 1018.8
20260506084015 45 254 10.0 13.0 0.00 0.00 0.00 79 1018.8
20260506083516 45 261 10.0 14.0 0.00 0.00 0.00 79 1018.8
20260506083041 45 259 11.0 18.0 0.00 0.00 0.00 78 1018.8
20260506082515 45 261 11.0 18.0 0.00 0.00 0.00 77 1018.5
20260506082014 45 259 12.0 15.0 0.00 0.00 0.00 78 1018.6
20260506081544 46 263 12.0 15.0 0.00 0.00 0.00 78 1018.6
20260506081014 46 262 11.0 15.0 0.00 0.00 0.00 77 1018.6
20260506080513 46 264 11.0 15.0 0.00 0.00 0.00 77 1018.6
20260506073512 46 255 13.0 17.0 0.00 0.00 0.00 74 1018.4
20260506073059 46 267 12.0 17.0 0.00 0.00 0.00 74 1018.3
20260506072515 46 244 11.0 17.0 0.00 0.00 0.00 74 1018.2
20260506072017 46 244 13.0 17.0 0.00 0.00 0.00 74 1018.2
20260506071553 46 264 13.0 17.0 0.00 0.00 0.00 74 1018.3
20260506071014 46 268 12.0 15.0 0.00 0.00 0.00 73 1018.2
20260506070513 46 253 10.0 15.0 0.00 0.00 0.00 73 1018.2
20260506062515 46 250 11.0 18.0 0.00 0.00 0.00 73 1018.0
20260506062013 46 262 13.0 19.0 0.00 0.00 0.00 73 1017.9
20260506061555 46 273 12.0 20.0 0.00 0.00 0.00 73 1018.1
20260506061015 46 269 13.0 18.0 0.00 0.00 0.00 73 1018.0
20260506060523 46 270 11.0 18.0 0.00 0.00 0.00 73 1018.0
20260506051015 47 269 15.0 21.0 0.00 0.00 0.00 70 1017.7
20260506050520 48 275 16.0 21.0 0.00 0.00 0.00 69 1017.7
20260506045014 48 254 15.0 24.0 0.00 0.00 0.00 69 1017.5
20260506044551 48 267 17.0 25.0 0.00 0.00 0.00 68 1017.4
20260506044017 49 269 19.0 26.0 0.00 0.00 0.00 68 1017.2
20260506043515 49 253 18.0 26.0 0.00 0.00 0.00 67 1017.1
20260506043046 49 270 14.0 18.0 0.00 0.00 0.00 66 1017.2
20260506042516 50 267 12.0 17.0 0.00 0.00 0.00 66 1017.2
20260506042015 50 273 11.0 17.0 0.00 0.00 0.00 66 1017.0
20260506041552 50 264 12.0 16.0 0.00 0.00 0.00 66 1016.9
20260506041015 50 292 11.0 20.0 0.00 0.00 0.00 65 1016.9
20260506040519 51 262 15.0 20.0 0.00 0.00 0.00 64 1016.8
20260506040107 51 265 12.0 18.0 0.00 0.00 0.00 64 1016.3
20260506035518 51 279 13.0 20.0 0.00 0.00 0.00 63 1016.1
20260506035016 51 293 14.0 20.0 0.00 0.00 0.00 63 1015.9
20260506034549 52 273 13.0 21.0 0.00 0.00 0.00 61 1016.0
20260506034016 52 273 15.0 20.0 0.00 0.00 0.00 61 1015.8
20260506033515 52 278 15.0 20.0 0.00 0.00 0.00 60 1016.0
20260506033047 53 261 14.0 18.0 0.00 0.00 0.00 58 1015.8
20260506032516 53 267 11.0 17.0 0.00 0.00 0.00 58 1015.7
20260506032013 54 272 13.0 20.0 0.00 0.00 0.00 56 1015.8
20260506031549 54 273 14.0 20.0 0.00 0.00 0.00 54 1015.8
20260506031015 54 272 12.0 20.0 0.00 0.00 0.00 54 1015.8
20260506030515 54 280 14.0 20.0 0.00 0.00 0.00 55 1015.4
20260506030056 55 263 13.0 23.0 0.00 0.00 0.00 55 1015.5
20260506025516 55 272 15.0 23.0 0.00 0.00 0.00 55 1015.3
20260506025016 55 296 13.0 20.0 0.00 0.00 0.00 55 1015.3
20260506024557 55 266 15.0 20.0 0.00 0.00 0.00 54 1015.4
20260506024016 55 255 15.0 20.0 0.00 0.00 0.00 54 1015.2
20260506023520 56 245 13.0 21.0 0.00 0.00 0.00 52 1015.4
20260506023050 56 250 16.0 21.0 0.00 0.00 0.00 53 1015.2
20260506022518 56 257 15.0 19.0 0.00 0.00 0.00 52 1015.1
20260506022017 56 264 12.0 19.0 0.00 0.00 0.00 52 1015.4
20260506021559 56 224 15.0 22.0 0.00 0.00 0.00 51 1015.0
20260506021019 57 248 17.0 22.0 0.00 0.00 0.00 52 1014.9
20260506020515 57 246 14.0 20.0 0.00 0.00 0.00 53 1015.2
20260506020044 57 260 15.0 20.0 0.00 0.00 0.00 53 1015.1
20260506015514 57 260 12.0 18.0 0.00 0.00 0.00 53 1015.3
20260506015019 58 257 11.0 17.0 0.00 0.00 0.00 51 1015.3
20260506014558 58 250 13.0 19.0 0.00 0.00 0.00 50 1015.1
20260506014019 58 269 12.0 19.0 0.00 0.00 0.00 51 1015.1
20260506013517 58 274 11.0 18.0 0.00 0.00 0.00 50 1015.0
20260506013053 58 247 14.0 19.0 0.00 0.00 0.00 49 1014.7
20260506012515 59 252 14.0 19.0 0.00 0.00 0.00 50 1014.7
20260506012021 59 260 11.0 16.0 0.00 0.00 0.00 50 1014.9
20260506011603 59 209 10.0 12.0 0.00 0.00 0.00 50 1014.9
20260506011015 60 244 7.0 14.0 0.00 0.00 0.00 50 1015.0
20260506010519 59 245 9.0 18.0 0.00 0.00 0.00 52 1015.0
20260506010050 59 256 12.0 23.0 0.00 0.00 0.00 52 1014.9
20260506005515 59 260 12.0 18.0 0.00 0.00 0.00 53 1015.0
20260506005015 59 250 13.0 19.0 0.00 0.00 0.00 53 1014.9
20260506004550 60 242 13.0 19.0 0.00 0.00 0.00 53 1015.0
20260506004015 60 255 9.0 18.0 0.00 0.00 0.00 53 1015.1
20260506003516 60 260 10.0 23.0 0.00 0.00 0.00 53 1015.2
20260506003043 59 245 14.0 23.0 0.00 0.00 0.00 54 1014.9
20260506002514 60 252 15.0 21.0 0.00 0.00 0.00 53 1014.7
20260506002015 60 277 14.0 20.0 0.00 0.00 0.00 54 1014.8
20260506001546 60 269 14.0 20.0 0.00 0.00 0.00 53 1014.8
20260506001016 61 241 12.0 19.0 0.00 0.00 0.00 54 1014.9
20260506000514 62 271 11.0 16.0 0.00 0.00 0.00 52 1015.0
20260506000049 61 236 12.0 18.0 0.00 0.00 0.00 54 1014.8
20260505235515 61 246 12.0 19.0 0.00 0.00 0.00 53 1014.9
20260505235015 61 254 15.0 19.0 0.00 0.00 0.00 51 1014.8
20260505234545 62 261 9.0 16.0 0.00 0.00 0.00 50 1014.7
20260505234018 63 257 7.0 13.0 0.00 0.00 0.00 50 1014.9
20260505233516 62 240 10.0 13.0 0.00 0.00 0.00 51 1014.8
20260505233049 62 227 7.0 13.0 0.00 0.00 0.00 51 1014.8
20260505232517 62 254 6.0 16.0 0.00 0.00 0.00 51 1014.9
20260505232015 62 210 9.0 16.0 0.00 0.00 0.00 51 1014.9
20260505231601 62 222 7.0 15.0 0.00 0.00 0.00 51 1014.8
20260505231022 61 226 9.0 13.0 0.00 0.00 0.00 50 1014.7
20260505230515 61 215 9.0 14.0 0.00 0.00 0.00 50 1014.6